Regional Weather Roundup
Issued by NWS

Home | Current Version | Previous Version | Graphics & Text | Print | Product List | Glossary On
Versions: 1 2 3 4 5 6 7 8 9 10 11 12 13 14 15 16 17 18 19 20 21 22 23 24 25 26 27 28 29 30 31 32 33 34 35 36 37 38 39 40 41 42 43 44 45 46 47 48 49 50
896
ASUS43 KFSD 230702
RWRSD

WEATHER ROUNDUP FOR SOUTH DAKOTA
NATIONAL WEATHER SERVICE SIOUX FALLS SD
200 AM CDT TUE MAY 23 2017

NOTE: "FAIR" INDICATES FEW OR NO CLOUDS BELOW 12,000 FEET WITH NO
SIGNIFICANT WEATHER AND/OR OBSTRUCTIONS TO VISIBILITY.


SDZ001>005-009-010-012>017-230800-
NORTHWEST AND NORTH CENTRAL SOUTH DAKOTA

CITY           SKY/WX    TMP DP  RH WIND       PRES   REMARKS
BUFFALO          N/A     50  42  74 NW10      30.06F
FAITH            N/A     51  40  65 N15       30.06S
MOBRIDGE       CLOUDY    52  40  63 N12       30.01R
$$

SDZ012>016-024>037-041>051-057-063-072>074-230800-
SOUTHWEST AND SOUTH CENTRAL SOUTH DAKOTA

CITY           SKY/WX    TMP DP  RH WIND       PRES   REMARKS
RAPID CTY ARPT CLOUDY    47  40  76 NW9       30.12F
PIERRE         CLOUDY    52  39  61 W9        29.98F
CUSTER         CLOUDY    38  31  76 VRB5      30.17S
ELLSWORTH AFB  CLOUDY    49  41  74 NW10      30.12S
PHILIP         CLOUDY    50  46  86 NW12      30.05F
PINE RIDGE     CLOUDY    45  43  93 W3        30.14S
SPEARFISH      CLOUDY    45  41  87 W7        30.17F
WINNER         CLOUDY    50  44  80 W8        30.02F
$$

SDZ004>011-016>023-039-040-230800-
NORTHEAST SOUTH DAKOTA

CITY           SKY/WX    TMP DP  RH WIND       PRES   REMARKS
ABERDEEN       CLOUDY    47  42  83 NW14      29.96F
WATERTOWN      LGT RAIN  46  44  93 NW15      29.90S
BROOKINGS      CLOUDY    46  43  89 W10       29.90F
SISSETON         N/A     48  46  93 N12       29.89F
$$

SDZ017-020-022-023-036>040-048>070-230800-
SOUTHEAST SOUTH DAKOTA

CITY           SKY/WX    TMP DP  RH WIND       PRES   REMARKS
SIOUX FALLS    PTCLDY    48  42  80 NW13      29.92S
HURON          LGT RAIN  47  45  93 W8        29.96F
CHAMBERLAIN    DRIZZLE   51  45  79 CALM      29.99F
MITCHELL       CLOUDY    49  46  90 W6        29.96F
$$

ABBREVIATIONS USED IN REMARKS
   TC - TEMPERATURE IN CELSIUS
  WCI - WIND CHILL INDEX
   HX - HEAT INDEX
  VSB - VISIBILITY





USA.gov is the U.S. government's official web portal to all federal, state and local government web resources and services.